Weather History for KRKP - October, 2012

Change the Weather History Date:

Wednesday, October 17, 2012

  Actual Average Record
Temperature  
Mean Temperature 82 °F -  
Max Temperature 89 °F 82 °F 90 °F (2003)
Min Temperature 75 °F 64 °F 43 °F (1974)
Cooling Degree Days 16    
Growing Degree Days 32 (Base 50)    
Moisture  
Dew Point 73 °F    
Average Humidity 78    
Maximum Humidity 90    
Minimum Humidity 61    
Precipitation  
Precipitation 0.00 in - - ()
Sea Level Pressure  
Sea Level Pressure 29.72 in    
Wind  
Wind Speed 10 mph (South)    
Max Wind Speed 15 mph    
Max Gust Speed 28 mph    
Visibility 9 miles    
Events      
Averages and records for this station are not official NWS values.
T = Trace of Precipitation, MM = Missing Value Source: NWS Daily Summary

Daily Weather History Graph

Daily Weather History Graph

Search for Another Location

Airport or City:

Trip Planner

Search our weather history database for the weather conditions in past years. The results will help you decide how hot, cold, wet, or windy it might be!

Date:

Astronomy

Oct. 17, 2012 Rise Set
Actual Time 7:30 AM CDT 6:56 PM CDT
Civil Twilight 7:06 AM CDT 7:20 PM CDT
Nautical Twilight 6:39 AM CDT 7:47 PM CDT
Astronomical Twilight 6:11 AM CDT 8:14 PM CDT
Moon 9:50 AM CDT (10/17) 8:49 PM CDT (10/17)
Length of Visible Light 12h 13m
Length of Day
11h 26m
Waxing Crescent, 7% of the Moon is Illuminated
Oct 17
Waxing Crescent
Oct 21
First Quarter
Oct 29
Full
Nov 6
Last Quarter
Nov 13
New

Hourly Weather History & Observations

Time (CDT) Temp. Heat Index Dew Point Humidity Pressure Visibility Wind Dir Wind Speed Gust Speed Precip Events Conditions
12:53 AM 75.0 °F - 72.0 °F 90% 29.78 in 10.0 mi ESE 12.7 mph - 0.00 in   Overcast
1:08 AM 75.2 °F - 71.6 °F 89% 29.77 in 10.0 mi ESE 13.8 mph - N/A   Overcast
1:53 AM 77.0 °F - 73.9 °F 90% 29.77 in 10.0 mi ESE 12.7 mph - N/A   Mostly Cloudy
2:35 AM 78.8 °F - 73.4 °F 83% 29.76 in 10.0 mi ESE 11.5 mph - N/A   Mostly Cloudy
2:53 AM 78.1 °F - 75.0 °F 90% 29.76 in 10.0 mi SSE 4.6 mph - N/A   Mostly Cloudy
3:53 AM 79.0 °F - 73.0 °F 82% 29.75 in 10.0 mi South 5.8 mph - N/A   Partly Cloudy
4:53 AM 78.1 °F - 72.0 °F 81% 29.75 in 10.0 mi South 6.9 mph - N/A   Partly Cloudy
5:53 AM 78.1 °F - 72.0 °F 81% 29.75 in 10.0 mi South 4.6 mph - N/A   Clear
6:53 AM 77.0 °F - 72.0 °F 84% 29.75 in 10.0 mi South 3.5 mph - N/A   Clear
7:53 AM 77.0 °F - 73.0 °F 88% 29.76 in 10.0 mi Variable 3.5 mph - N/A   Clear
8:53 AM 80.1 °F 84.5 °F 73.9 °F 81% 29.76 in 10.0 mi South 8.1 mph - N/A   Clear
9:53 AM 82.9 °F 88.8 °F 73.0 °F 72% 29.77 in 10.0 mi South 11.5 mph 20.7 mph N/A   Clear
10:53 AM 84.0 °F 89.6 °F 72.0 °F 67% 29.77 in 10.0 mi SSW 11.5 mph 26.5 mph N/A   Clear
11:18 AM 84.2 °F 89.6 °F 71.6 °F 66% 29.75 in 2.0 mi South 12.7 mph 25.3 mph N/A   Haze
11:32 AM 84.2 °F 89.6 °F 71.6 °F 66% 29.74 in 10.0 mi South 15.0 mph 25.3 mph N/A   Clear
11:53 AM 84.9 °F 90.7 °F 72.0 °F 65% 29.74 in 10.0 mi South 12.7 mph 27.6 mph N/A   Clear
12:53 PM 87.1 °F 93.6 °F 72.0 °F 61% 29.72 in 10.0 mi SSW 10.4 mph 27.6 mph N/A   Clear
1:53 PM 87.1 °F 94.5 °F 73.0 °F 63% 29.69 in 10.0 mi South 12.7 mph 20.7 mph N/A   Clear
2:53 PM 88.0 °F 96.5 °F 73.9 °F 63% 29.65 in 9.0 mi South 9.2 mph 18.4 mph N/A   Clear
3:53 PM 86.0 °F 93.8 °F 73.9 °F 67% 29.64 in 9.0 mi South 15.0 mph 23.0 mph N/A   Clear
4:53 PM 86.0 °F 93.8 °F 73.9 °F 67% 29.63 in 9.0 mi South 10.4 mph 20.7 mph N/A   Clear
5:53 PM 82.9 °F 90.2 °F 75.0 °F 77% 29.63 in 8.0 mi South 11.5 mph 18.4 mph N/A   Clear
6:53 PM 81.0 °F 86.7 °F 75.0 °F 82% 29.63 in 7.0 mi South 10.4 mph 20.7 mph N/A   Clear
7:53 PM 81.0 °F 86.7 °F 75.0 °F 82% 29.66 in 8.0 mi South 9.2 mph 17.3 mph N/A   Clear
8:53 PM 81.0 °F 86.7 °F 75.0 °F 82% 29.69 in 8.0 mi South 6.9 mph - N/A   Clear
9:53 PM 80.1 °F 85.1 °F 75.0 °F 85% 29.71 in 7.0 mi South 6.9 mph - N/A   Clear
10:53 PM 80.1 °F 85.4 °F 75.9 °F 87% 29.70 in 7.0 mi South 10.4 mph 18.4 mph N/A   Clear
11:53 PM 80.1 °F 85.4 °F 75.9 °F 87% 29.70 in 7.0 mi South 9.2 mph - N/A   Clear